Location: Spruce Knob
(38.6995°N, 79.5330°W)
Time: 14:00:48
(UTC-04:00)

MOZHAYETS 4 - Pass Details

Date: 03 June 2024
Orbit: 652 x 670 km, 98.3° (Epoch: 14 June)

Event Time Altitude Azimuth Distance (km) Brightness Sun altitude
Rises 03:39:11 0° 129° (SE) 2,979 11.0 -20.4°
Reaches altitude 10° 03:41:53 10° 112° (ESE) 2,068 10.4 -20.1°
Maximum altitude 03:45:07 20° 66° (ENE) 1,524 10.3 -19.7°
Drops below altitude 10° 03:48:21 10° 20° (NNE) 2,070 11.3 -19.3°
Sets 03:51:03 0° 4° (N) 2,983 12.0 -19.0°
